Cloud_Cover
85 73 100 98 40 100 40 48 5 3 4 5 2 1 0 0 0 55 3 3 18 19 18 0 0 0 0 4 4 5 5 11 13 43 100 100 100 99 91 96 85 100 100 97 66 99 100 100 100
5 5 96 96 51 100 27 8 5 54 0 0 1 0 0 0 0 8 3 32 100 86 81 36 4 0 0 2 3 5 38 95 100 100 100 100 99 84 90 5 5 41 26 100 100 100 100 100 100
5 98 33 14 5 24 52 5 16 99 100 4 5 0 0 0 0 0 22 49 100 98 100 33 0 0 0 3 10 51 100 100 100 100 100 69 76 27 5 5 6 5 16 100 87 98 100 100 89
3 7 46 7 29 35 5 5 36 100 100 100 64 4 0 0 0 31 44 100 100 100 100 40 3 0 0 12 5 11 100 98 8 16 20 7 5 5 5 5 11 26 7 90 34 17 0 3 81
5 9 54 41 54 92 50 10 5 54 100 100 100 98 16 0 22 52 90 100 100 49 67 46 89 0 0 22 74 95 6 5 5 5 5 5 5 5 5 44 21 5 5 29 0 0 0 0 4
7 8 11 99 100 100 22 6 5 32 100 100 100 100 100 5 25 100 100 100 90 64 54 60 98 2 88 100 84 5 5 5 5 5 5 5 5 5 5 5 5 5 5 1 0 3 0 0 0
6 13 8 56 100 7 1 4 5 5 44 100 100 100 100 27 65 100 100 78 100 67 98 70 44 28 62 2 1 0 5 5 5 5 5 5 5 5 5 5 5 4 0 0 0 0 0 0 0
5 5 5 1 5 8 0 0 5 5 4 99 100 100 100 8 70 62 100 100 92 100 67 89 34 60 40 7 5 5 5 8 7 9 5 5 5 5 5 4 3 5 5 5 3 1 0 0 0
5 5 0 0 0 3 0 0 0 5 23 100 100 100 86 5 32 20 86 97 94 88 92 32 86 24 22 0 5 5 1 7 35 5 6 5 4 15 5 0 0 5 3 0 5 5 5 4 0
0 0 0 0 0 0 0 0 0 4 87 100 100 100 6 5 5 8 8 65 77 61 53 95 40 45 31 0 6 6 1 3 5 5 5 5 0 2 0 0 0 0 2 5 4 4 1 5 5
0 0 0 0 0 0 0 2 5 89 100 100 100 100 5 5 5 17 5 50 90 98 98 100 76 100 100 61 43 35 32 1 5 5 5 3 32 1 5 1 0 1 0 0 3 2 8 2 4
5 2 1 5 0 5 0 0 87 100 100 100 100 56 4 5 5 5 5 28 100 100 100 92 93 100 77 70 33 22 36 11 5 5 5 60 100 32 5 0 4 5 3 5 7 5 3 0 0
5 5 0 4 58 5 4 88 65 100 100 100 100 6 5 38 33 5 69 16 100 100 89 100 100 100 100 30 58 32 9 9 6 8 28 82 90 44 5 12 11 44 5 6 5 3 0 0 0
0 4 8 69 73 5 88 100 77 100 100 100 99 5 5 5 28 7 99 76 100 48 100 100 71 73 100 68 48 31 29 18 23 10 14 81 28 31 51 81 19 95 87 66 7 4 5 8 5
5 13 23 5 26 100 100 100 100 100 100 100 99 5 4 5 18 10 58 100 87 51 100 98 54 99 100 80 41 49 17 41 89 27 6 5 83 88 48 5 5 56 44 84 13 96 5 5 5
22 100 86 7 13 74 100 100 93 100 100 100 5 5 5 7 28 28 84 100 84 38 100 83 55 49 100 62 100 90 80 42 54 67 8 62 69 89 79 71 5 5 5 65 100 24 71 51 11
5 16 5 38 98 100 100 100 33 100 100 43 5 5 5 5 6 56 77 100 100 98 100 98 64 66 100 62 100 100 100 100 100 90 100 100 100 100 100 100 5 2 8 100 100 92 100 100 29
100 100 94 95 100 100 100 98 100 48 96 5 5 22 15 5 6 38 98 100 99 34 96 100 100 90 93 100 100 100 100 100 100 100 100 100 100 100 100 100 11 98 95 100 100 48 99 72 7
100 100 100 100 100 91 100 100 100 60 4 5 14 31 63 74 38 53 92 100 76 81 100 100 84 100 86 99 100 100 100 100 100 100 75 38 100 90 100 100 100 100 100 100 76 80 41 13 5
100 100 100 89 20 22 22 68 54 5 5 15 5 33 59 37 67 99 100 100 100 100 100 95 100 100 85 100 100 100 100 100 100 100 100 100 100 100 100 100 100 100 100 64 76 90 52 73 38
100 100 93 100 9 72 68 31 66 5 5 5 5 7 17 6 46 100 100 99 100 100 100 100 93 100 100 98 90 81 100 100 100 100 100 100 100 100 37 100 100 100 100 90 83 94 44 40 5
97 28 58 57 49 39 43 100 58 2 5 0 5 5 5 71 45 73 100 100 100 100 100 100 100 100 100 100 100 100 100 100 100 100 100 100 100 100 96 100 100 100 100 73 97 100 98 76 15
64 64 11 87 98 97 100 60 99 5 5 0 0 1 0 5 5 5 78 100 100 100 100 100 98 100 96 100 100 88 100 100 100 100 100 100 100 100 100 100 100 100 100 100 100 100 100 54 48
91 84 92 94 20 100 8 94 42 6 5 3 0 4 0 1 0 5 13 15 95 100 100 100 97 90 93 66 98 100 100 100 100 100 100 100 100 100 100 100 100 100 100 100 100 100 100 100 64
100 100 100 100 100 99 20 84 100 55 2 3 5 5 2 0 4 5 5 38 67 100 100 100 99 86 97 88 99 100 100 100 100 100 100 100 100 100 100 100 100 100 100 100 100 100 76 85 81
100 79 92 53 98 66 5 47 94 63 5 9 5 5 5 5 4 0 5 5 58 100 100 100 100 100 100 100 100 100 100 100 100 100 100 100 100 100 100 100 100 100 100 100 100 100 100 100 27
8 98 5 14 5 5 5 21 99 5 5 49 5 5 5 5 4 0 1 5 23 68 100 100 100 100 100 100 100 100 100 100 100 100 100 100 62 100 100 100 100 100 100 100 100 100 100 100 100
100 16 6 16 5 5 5 11 40 6 17 4 6 62 18 5 1 1 3 4 100 100 100 64 100 100 100 100 100 100 100 100 100 100 100 95 82 100 100 100 100 100 100 100 100 100 100 100 100
100 100 65 48 5 4 3 22 84 20 5 4 5 58 14 5 5 5 23 36 36 66 76 85 100 100 100 100 100 100 100 100 100 100 100 100 81 100 100 100 100 100 100 100 100 100 100 100 100
100 100 100 97 5 5 0 20 100 4 54 8 0 37 66 98 92 25 6 0 0 1 91 99 100 100 100 100 100 100 100 100 100 100 43 100 21 41 100 100 100 100 100 100 100 100 100 100 100